Change the Weather History Date:

Saturday, June 22, 2013

  Actual Average Record
Temperature  
Mean Temperature 78 °F -  
Max Temperature 86 °F 85 °F 95 °F (2011)
Min Temperature 73 °F 71 °F 69 °F (2005)
Cooling Degree Days 14    
Growing Degree Days 28 (Base 50)    
Moisture  
Dew Point 73 °F    
Average Humidity 80    
Maximum Humidity 96    
Minimum Humidity 63    
Precipitation  
Precipitation 0.00 in - - ()
Sea Level Pressure  
Sea Level Pressure 30.07 in    
Wind  
Wind Speed 5 mph (East)    
Max Wind Speed 13 mph    
Max Gust Speed 46 mph    
Visibility 10 miles    
Events      
Averages and records for this station are not official NWS values.
T = Trace of Precipitation, MM = Missing Value Source: NWS Daily Summary

Daily Weather History Graph

Daily Weather History Graph

Search for Another Location

Airport or City:

Trip Planner

Search our weather history database for the weather conditions in past years. The results will help you decide how hot, cold, wet, or windy it might be!

Date:

Astronomy

Jun. 22, 2013 Rise Set
Actual Time 5:48 AM CDT 7:54 PM CDT
Civil Twilight 5:20 AM CDT 8:22 PM CDT
Nautical Twilight 4:46 AM CDT 8:55 PM CDT
Astronomical Twilight 4:10 AM CDT 9:31 PM CDT
Moon 7:13 PM CDT (6/22) 4:56 AM CDT (6/22)
Length of Visible Light 15h 01m
Length of Day
14h 06m
Waxing Gibbous, 99% of the Moon is Illuminated
Jun 22
Waxing Gibbous
Jun 23
Full
Jun 29
Last Quarter
Jul 8
New
Jul 15
First Quarter

Hourly Weather History & Observations

Time (CDT) Temp. Heat Index Dew Point Humidity Pressure Visibility Wind Dir Wind Speed Gust Speed Precip Events Conditions
12:56 AM 73.9 °F - 72.0 °F 93% 30.08 in 10.0 mi Calm Calm - N/A   Clear
1:56 AM 75.0 °F - 73.0 °F 94% 30.06 in 10.0 mi Calm Calm - N/A   Clear
2:56 AM 73.0 °F - 71.1 °F 93% 30.05 in 10.0 mi NNE 3.5 mph - N/A   Clear
3:56 AM 75.0 °F - 73.9 °F 96% 30.05 in 10.0 mi NNE 3.5 mph - N/A   Scattered Clouds
4:10 AM 75.2 °F - 73.4 °F 94% 30.05 in 10.0 mi NNE 5.8 mph - N/A   Mostly Cloudy
4:22 AM 75.2 °F - 73.4 °F 94% 30.05 in 10.0 mi NNE 5.8 mph - N/A   Scattered Clouds
4:56 AM 75.0 °F - 73.9 °F 96% 30.06 in 10.0 mi NNE 5.8 mph - N/A   Clear
5:56 AM 75.0 °F - 73.0 °F 94% 30.08 in 10.0 mi NE 5.8 mph - N/A   Clear
6:56 AM 77.0 °F - 73.9 °F 90% 30.09 in 10.0 mi NE 8.1 mph - N/A   Clear
7:56 AM 78.1 °F - 73.0 °F 84% 30.11 in 10.0 mi ENE 9.2 mph - N/A   Clear
8:56 AM 80.1 °F 84.5 °F 73.9 °F 81% 30.11 in 10.0 mi ENE 10.4 mph - N/A   Scattered Clouds
9:56 AM 81.0 °F 86.2 °F 73.9 °F 79% 30.12 in 10.0 mi NE 10.4 mph - N/A   Scattered Clouds
10:56 AM 82.9 °F 88.8 °F 73.0 °F 72% 30.13 in 10.0 mi ESE 11.5 mph - N/A   Scattered Clouds
11:56 AM 84.9 °F 90.7 °F 72.0 °F 65% 30.12 in 10.0 mi ESE 10.4 mph - N/A   Mostly Cloudy
12:56 PM 84.9 °F 90.1 °F 71.1 °F 63% 30.12 in 10.0 mi ESE 12.7 mph - N/A   Scattered Clouds
1:56 PM 84.9 °F 92.1 °F 73.9 °F 69% 30.10 in 10.0 mi SE 10.4 mph - N/A   Scattered Clouds
2:56 PM 84.9 °F 92.1 °F 73.9 °F 69% 30.09 in 10.0 mi SSE 10.4 mph 46.0 mph N/A   Scattered Clouds
3:56 PM 84.0 °F 91.2 °F 73.9 °F 72% 30.06 in 10.0 mi SSE 10.4 mph - N/A   Scattered Clouds
4:56 PM 84.0 °F 90.2 °F 73.0 °F 69% 30.06 in 10.0 mi SSE 10.4 mph - N/A   Scattered Clouds
5:30 PM 84.2 °F 90.9 °F 73.4 °F 70% 30.03 in 10.0 mi SSE 9.2 mph - N/A   Mostly Cloudy
5:56 PM 82.9 °F 89.4 °F 73.9 °F 74% 30.03 in 10.0 mi Variable 5.8 mph - N/A   Clear
6:56 PM 82.0 °F 86.3 °F 71.1 °F 69% 30.03 in 10.0 mi South 6.9 mph - N/A   Clear
7:56 PM 80.1 °F 83.8 °F 72.0 °F 76% 30.02 in 10.0 mi SSE 3.5 mph - N/A   Clear
8:56 PM 79.0 °F - 72.0 °F 79% 30.03 in 10.0 mi SE 3.5 mph - N/A   Clear
9:56 PM 79.0 °F - 73.0 °F 82% 30.04 in 10.0 mi SE 4.6 mph - N/A   Clear
10:56 PM 80.1 °F 83.8 °F 72.0 °F 76% 30.07 in 10.0 mi ESE 5.8 mph - N/A   Scattered Clouds
11:56 PM 80.1 °F 84.2 °F 73.0 °F 79% 30.08 in 10.0 mi SE 5.8 mph - N/A   Scattered Clouds